Other Public Products
Issued by NWS Grand Forks, ND

Home | Current Version | Previous Version | Graphics & Text | Print | Product List | Glossary On
Versions: 1 2 3 4 5 6 7 8 9 10 11 12 13 14 15 16 17 18 19 20 21 22 23 24 25 26 27 28 29 30 31 32 33 34 35 36 37 38 39 40 41 42 43 44 45 46 47 48 49 50
000
FPUS83 KFGF 260231
OPUFGF
PRAIRIE TO PINES WEATHER ROUNDUP
NATIONAL WEATHER SERVICE EASTERN NORTH DAKOTA/GRAND FORKS ND
900 PM CDT TUE JUL 25 2017

 **SATELLITE DATA USED TO AUGMENT SKY COVER AT AUTOMATED STATIONS**
 *****  WEATHER ACROSS EASTERN NORTH DAKOTA  *****

CITY           SKY/WX    TMP DP  RH WIND       PRES   REMARKS
GRAND FORKS    FAIR      75  61  61 NW9       29.92R
GRAND FORKS AF FAIR      73  58  59 N10       29.94R
GRAND CITY NWS NOT AVBL
BUXTON           N/A     74  62  66 NW6         N/A
DEVILS LAKE    FAIR      71  60  68 N8        29.97R
FARGO          FAIR      77  70  79 SW5       29.92R
WAHPETON ARPT  FAIR      73  68  83 CALM      29.95R
$$

 *****  WEATHER ACROSS CENTRAL AND WESTERN NORTH DAKOTA  *****

CITY           SKY/WX    TMP DP  RH WIND       PRES   REMARKS
JAMESTOWN      FAIR      71  58  63 N6        29.96R
BISMARCK       FAIR      81  50  33 N6        29.98S
MINOT          FAIR      78  53  41 NW8       29.99R
MINOT AFB      FAIR      77  55  45 NW8       29.98R
GARRISON         N/A     78  50  37 N8        29.99S
WILLISTON      FAIR      82  43  25 N10       30.03R
DICKINSON      FAIR      79  47  32 N5        30.03S
HETTINGER      FAIR      76  52  43 CALM      30.05S
$$

 *****  OTHER OBSERVATIONS NORTHEAST NORTH DAKOTA  *****

CITY           SKY/WX    TMP DP  RH WIND       PRES   REMARKS
WALHALLA       NOT AVBL
LANGDON        FAIR      64  64 100 W8        29.96S
CAVALIER       FAIR      68  59  73 W7        29.91S
GRAFTON        FAIR      72  57  60 NW9       29.94R
CANDO          NOT AVBL
FORT TOTTEN      N/A     74  58  56 NW3       29.95S
ROLLA            N/A     64  59  82 W8        29.99S
RUGBY          NOT AVBL
 ***** THE ABOVE OBSERVATIONS ARE NON NWS ARE NOT QUALITY
        CONTROLLED AND MAY MIS-REPORT RAIN FOR SNOW...
$$

 *****  OTHER OBSERVATIONS SOUTHEAST NORTH DAKOTA *****

CITY           SKY/WX    TMP DP  RH WIND       PRES   REMARKS
COOPERSTOWN    FAIR      72  59  64 NW8       29.96S
VALLEY CITY    FAIR      70  61  73 NW5       29.97S
OAKES          NOT AVBL
GWINNER        CLEAR     73  66  78 CALM      29.95S
SHEYENNE NWR     N/A     76  71  83 CALM      29.95S
BUFFALO          N/A     71  59  64 CALM        N/A
WYNDMERE       NOT AVBL
 ***** THE ABOVE OBSERVATIONS ARE NON NWS ARE NOT QUALITY
       CONTROLLED AND MAY MIS-REPORT RAIN FOR SNOW...
$$

  *****  WEATHER ACROSS NORTHERN MINNESOTA  *****

CITY           SKY/WX    TMP DP  RH WIND       PRES   REMARKS
FLAG ISLAND    FAIR      72  57  60 W9        29.86R
WARROAD        FAIR      70  61  73 W7        29.88S
ROSEAU         FAIR      70  61  73 W3        29.89S
HALLOCK        FAIR      68  61  77 W6        29.90R
THF RVR FALLS  FAIR      71  61  70 NW6       29.93R
HALSTAD          N/A     72  61  67 W6          N/A
FOSSTON        FAIR      70  66  88 W5        29.95R
BAUDETTE       FAIR      72  58  61 W9        29.87R
WASKISH        FAIR      73  68  83 W14       29.90R
CROOKSTON      FAIR      70  63  78 NW5       29.94R
$$
  *****  WEATHER ACROSS CENTRAL AND WEST MINNESOTA  *****

CITY           SKY/WX    TMP DP  RH WIND       PRES   REMARKS
BEMIDJI        FAIR      72  68  88 SW7       29.93R
PARK RAPIDS    FAIR      73  68  84 W5        29.94F
WADENA         FAIR      72  70  94 CALM      29.95S
DETROIT LAKES  FAIR      72  68  88 CALM      29.96S
MOORHEAD       FAIR      73  70  88 CALM      29.94R
FERGUS FALLS   FAIR      73  73 100 CALM      29.94S
ELBOW LAKE     FAIR      73  71  93 CALM      29.98R
MORRIS MN      HVY RAIN  75  72  88 CALM      29.96R
STAPLES        FAIR      73  70  88 CALM      29.95S
WHEATON        FAIR      73  70  88 CALM      29.98R
$$
  *****  WEATHER ELSEWHERE ACROSS MINNESOTA  *****

CITY           SKY/WX    TMP DP  RH WIND       PRES   REMARKS
DULUTH         CLOUDY    69  66  90 SW7       29.95R
INTRNTL FALLS  LGT RAIN  68  62  81 W7G18     29.87R
ELY            CLOUDY    66  64  94 SW7       29.93R
CLOQUET        CLOUDY    70  64  83 CALM      29.95S
BRAINERD       MOCLDY    75  71  87 CALM      29.94S
HIBBING        CLOUDY    68  68 100 CALM      29.94R
ALEXANDRIA     TSTM      71  68  90 SW29G38   30.03R VSB 3/4
SAINT CLOUD    LGT RAIN  74  70  87 SW5       29.93R
MINNEAPOLIS    LGT RAIN  79  71  76 S24G33    29.90F
$$

  *****  WEATHER ACROSS SOUTH DAKOTA  *****

CITY           SKY/WX    TMP DP  RH WIND       PRES   REMARKS
SIOUX FALLS    CLOUDY    80  70  71 N9G26     29.94R
BROOKINGS      LGT RAIN  72  69  90 E16       29.96F
WATERTOWN      LGT RAIN  72  67  84 E5        29.95F
HURON          FAIR      74  69  85 E15       29.89R
SISSETON         N/A     77  72  84 CALM      29.94R
ABERDEEN       FAIR      76  72  87 NE8       29.95R
MITCHELL       TSTM      70  68  93 N18G26    29.96R FOG
PIERRE         FAIR      82  69  64 NE12      29.94R
MOBRIDGE       FAIR      76  62  62 NE6       29.93R
RAPID CITY     FAIR      78  59  51 N15       30.06R
$$

  *****  SOME WEATHER IN NEARBY STATES *****

CITY           SKY/WX    TMP DP  RH WIND       PRES   REMARKS
GLASGOW MT     FAIR      81  43  26 W6        30.05R
GREAT FALLS MT FAIR      80  37  21 NE15      30.03S
CHEYENNE WY    CLOUDY    69  55  60 NW13      30.22F
SCOTTSBLUFF NE MOCLDY    84  59  42 N16       30.01R
OMAHA NE       MOCLDY    88  71  57 SE15      29.93F HX  94
DES MOINES IA  MOCLDY    86  71  60 S13       29.98F HX  91
DAVENPORT IA   FAIR      74  67  78 SE7       30.11R
CHICAGO IL     FAIR      74  56  53 S10       30.14R
EAU CLAIRE WI  MOCLDY    73  67  81 S9        29.98F
LA CROSSE WI   FAIR      79  69  71 S8        30.02S
$$

  *****  SOME NATIONAL WEATHER *****

CITY           SKY/WX    TMP DP  RH WIND       PRES   REMARKS
LA GUARDIA NY  MOCLDY    69  60  73 NE9       30.21R
RALEIGH NC     MOCLDY    77  68  73 CALM      30.11R
ATLANTA GA     MOCLDY    78  71  79 CALM      30.11R
NEW ORLEANS LA MOCLDY    85  73  67 N3        30.10S HX  91
OKLAHOMA CITY  FAIR      87  70  56 S10       30.00R HX  92
ALBUQUERQUE NM MOCLDY    84  54  35 W5        30.18R
SALT LAKE CITY MOCLDY    83  57  41 S8        30.05S
LOS ANGELES CA FAIR      70  64  81 W12       29.96S
BOISE ID       FAIR      92  47  21 NW12      29.92S
SEATTLE WA     FAIR      83  48  29 N12       29.99F
$$

*** WEATHER ACROSS MANITOBA...SASKATCHEWAN AND ONTARIO ***
                ***ONTARIO***

CITY           SKY/WX    TMP DP  RH WIND       PRES   REMARKS
GERALDTON      MOCLDY    64  50  59 S16G28    29.86F
THUNDER BAY    MOCLDY    70  57  64 SW5       29.89R
SIOUX LOOKOUT  MOCLDY    72  59  64 NW12G29   29.78R
TORONTO        CLEAR     66  55  68 S3        30.22S
BIG TROUT LK   CLEAR     61  61 100 S6        29.58S
PICKLE LAKE    PTCLDY    66  66 100 SW8       29.68S
DRYDEN         CLEAR     70  57  64 W13G18    29.80R
KENORA         PTCLDY    68  57  68 W6        29.84R
$$
                *** MANITOBA***

CITY           SKY/WX    TMP DP  RH WIND       PRES   REMARKS
BRANDON        PTCLDY    66  59  77 W7        29.94R
DAUPHIN        CLEAR     66  63  88 W2        29.89R
ISLAND LAKE    NOT AVBL
PILOT MOUND      N/A     66  57  72 W6          N/A
THE PAS        PTCLDY    68  61  77 NW8       29.85R
THOMPSON       MOCLDY    68  59  73 NW9       29.71R
WINNIPEG       PTCLDY    68  61  77 W9        29.86S
LYNN LAKE      PTCLDY    70  54  56 NW9       29.79R
CHURCHILL      FOG       50  48  93 NE5       29.63S VSB 1/4
GILLAM         DRIZZLE   63  59  88 N14       29.62R
$$
                ***SASKATCHEWAN***

CITY           SKY/WX    TMP DP  RH WIND       PRES   REMARKS
ESTEVAN        PTCLDY    72  55  56 NW6       30.02R
KINDERSLEY     PTCLDY    72  48  43 NE8       30.05S
LLOYDMINSTER   MOSUNNY   70  55  60 NW3       30.05S
PRINCE ALBERT  PTCLDY    70  55  60 NW6       30.00R
REGINA         PTCLDY    73  54  49 NW7       30.02R
YORKTON        CLEAR     68  61  77 W10       29.97R



USA.gov is the U.S. government's official web portal to all federal, state and local government web resources and services.